Погода в Кивиыли

Эстония     59°21′33″N   26°58′20″E
темп.,
°C
ветер,
м/с
пор.,
м/с
влажн.,
%
обл.,
%
осадки,
мм/ч
давл.,
гПа
погр.,
м
7 мая, пт
пт700:00+4юз3895100 0.5 996594
03:00+4ююз4796100 0.8 996753
06:00+4юз4897100 1.6 997901
09:00+5юз3796100 2.1 998739
12:00+5з2494100 0.6 1000595
15:00+7ююз358190 1.4 1002980
18:00+8юз468145 1.3 10021043
21:00+4сз229452 1.9 100366
8 мая, сб
сб800:00+3св129881 0.0 1004145
03:00+3ссв1198100 0.0 100389
06:00+3зсз2398100 0.0 1004406
09:00+3сз2598100 0.3 1005393
12:00+4зсз2595100 0.6 1007519
15:00+6сз476747 1.2 10091413
18:00+8сз464320 0.0 10101763
21:00+4зсз23700 0.0 101243
9 мая, вс
вс900:00+2з311860 0.0 1013305
03:000з310920 0.0 1015212
06:00+1зюз268912 0.0 1016133
09:00+7юз46585 0.0 1016590
12:00+11юз5740100 0.0 10171506
15:00+13юз5843100 0.0 10162342
18:00+11зюз4753100 0.0 10171617
21:00+8юв2264100 0.0 101741
10 мая, пн
пн1000:00+6ююв51391100 1.8 1016826
03:00+8ююз51589100 1.9 1016723
06:00+8ююз51491100 0.0 1017508
09:00+12ююз5128280 0.0 1019512
12:00+18ююз585896 0.0 10201021
15:00+20ююз5951100 0.0 10201417
18:00+20ююз4955100 0.0 10201299
21:00+14ю3117795 0.0 1021304
11 мая, вт
вт1100:00+13ю41379100 0.0 1022416
03:00+11ю41484100 0.0 1023457
06:00+10ююв413875 0.0 1023399
09:00+14ю5126458 0.0 1023590
12:00+19ю694767 0.0 10231053
15:00+21ююв69435 0.0 10221317
18:00+19ююв59535 0.0 1022705
21:00+13ююв311725 0.0 1022225